STARLINK-3299 (50831 NORAD) Tracking and Keplerian Element Data

This shows tracking and keplerian element data for the satellite.

Feedback or suggestion? Click here.




ElementValue
Catalog50831
NameSTARLINK-3299
Epoch Orbit382
Epoch Day22.91667824
Epoch Year2022
RAAN119.761
Inclination53.2175
Eccentricity0.0001131
Argument of Perigee60.3778
Mean Anonmoly254.4878
Mean Motion15.75275889
Decay Rate-0.00821393
L11 50831U 22001AE 22022.91667824 -.00821393 00000+0 -58869-2 0 9998
L22 50831 53.2175 119.7610 0001131 60.3778 254.4878 15.75275889 3822

Live tracking and technical data element details for STARLINK-3299 (NORAD 50831). STARLINK-3299 can be tracked NOW for your location showing map with azimuth and elevation plus other details from your city location.

Track the satellite on the map from your city or location and see movement details for azimuth, elevation, latitude, longitude, range, height, and movement on the map or in text.







IsCatalogInMostPopularTable: catalog: 50831, numindb: 3
Update: records affected: 1



GetName: 50831 STARLINK-3299

Hit Count: updated at: Sun, 23 Jan 2022 23:44:58 GMT